• Join FlightAware (Why Join?)
  • Login
  • US Flag 
04:48AM EST


 

Airport Tracker/Info


-or-


 

Live Flight TrackerFlight Track Log ✈ UAL4550 ✈ 24-Apr-2013 ✈ KSAT - KIAH

Flight Track Log - Related Links

Times and Time Zones

All times are in EDT time to prevent confusion due to time zone crossing. See the UAL4550 flight status page for this flight to view local times or setup timezone preferences in your user account.

Time Position Orientation Groundspeed Altitude Reporting Facility
EDT Latitude Longitude Course Direction KTS MPH feet Rate Location/Type
03:33PM 29.5467 -98.4492 90° East 152 175 1,600  Level Houston Center
03:34PM 29.5792 -98.4164 41° Northeast 171 197 4,000 1,980 Climbing Houston Center
03:35PM 29.6189 -98.3794 39° Northeast 218 251 5,100 1,620 Climbing Houston Center
03:36PM 29.6781 -98.3264 38° Northeast 267 307 7,100 2,100 Climbing Houston Center
03:37PM 29.6218 -98.0745 77° East  Level FlightAware Approximate
03:37PM 29.7019 -98.2381 73° East 286 329 9,500  Level Houston Center
03:38PM 29.6500 -98.0136 90° East  Level FlightAware Approximate
03:38PM 29.6919 -98.1444 97° East 295 339 10,900  Level Houston Center
03:39PM 29.6775 -98.0250 98° East 347 399 11,800 960 Climbing Houston Center
03:40PM 29.6628 -97.9075 98° East 369 425 13,000 1,140 Climbing Houston Center
03:41PM 29.6533 -97.7814 95° East 383 441 14,200 1,200 Climbing Houston Center
03:42PM 29.6556 -97.6558 89° East 392 451 15,500 1,140 Climbing Houston Center
03:43PM 29.6569 -97.5278 89° East 397 457 16,600 1,020 Climbing Houston Center
03:44PM 29.6478 -97.3969 95° East 411 473 17,700 900 Climbing Houston Center
03:45PM 29.6375 -97.2644 95° East 415 478 18,500 960 Climbing Houston Center
03:46PM 29.6264 -97.1294 95° East 422 486 19,700 1,140 Climbing Houston Center
03:47PM 29.6136 -96.9642 95° East 429 494 20,900 360 Climbing Houston Center
03:48PM 29.6017 -96.8206 95° East 442 509 20,500 -1,080 Descending Houston Center
03:49PM 29.5886 -96.6747 96° East 451 519 18,700 -1,740 Descending Houston Center
03:50PM 29.5769 -96.5378 96° East 433 498 17,000 -1,800 Descending Houston Center
03:51PM 29.5656 -96.4031 96° East 425 489 15,000 -2,040 Descending Houston Center
03:52PM 29.5547 -96.3000 97° East 423 487 13,500 -1,860 Descending Houston Center
03:52PM 29.5542 -96.2717 91° East 415 478 13,100 -1,500 Descending Houston Center
03:53PM 29.5492 -96.1831 94° East 360 414 12,000 -1,200 Descending Houston Center
03:53PM 29.5536 -96.1572 79° East 362 417 11,900 -300 Descending Houston Center
03:54PM 29.6031 -96.0544 61° Northeast 343 395 11,700 -660 Descending Houston Center
03:55PM 29.6442 -95.9706 61° Northeast 349 402 10,800 -840 Descending Houston Center
03:55PM 29.6542 -95.9544 54° Northeast 350 403 10,700 -660 Descending Houston Center
03:56PM 29.7022 -95.8581 60° Northeast 348 400 10,000 -420 Descending Houston Center
03:57PM 29.7444 -95.7739 60° Northeast 339 390 10,000  Level Houston Center
03:57PM 29.7492 -95.7642 61° Northeast 342 394 10,000 -1,140 Level Houston Center
03:58PM 29.7872 -95.6894 60° Northeast 293 337 8,900 -1,560 Descending Houston Center
03:58PM 29.7989 -95.6628 63° Northeast 306 352 8,400 -1,680 Descending Houston Center
03:59PM 29.8244 -95.6131 59° Northeast 297 342 7,400 -1,560 Descending Houston Center
03:59PM 29.8397 -95.5819 60° Northeast 293 337 6,800 -1,320 Descending Houston Center
04:00PM 29.8636 -95.5336 60° Northeast 279 321 6,100 -480 Descending Houston Center
04:01PM 29.8953 -95.4431 68° East 278 320 6,000 -120 Descending Houston Center
04:01PM 29.8961 -95.4183 88° East 286 329 6,000  Level Houston Center
04:02PM 29.8950 -95.3492 91° East 287 330 6,000  Level Houston Center
04:03PM 29.8967 -95.3269 85° East 285 328 6,000  Level Houston Center
04:03PM 29.8956 -95.2647 91° East 285 328 6,000  Level Houston Center
04:04PM 29.8972 -95.2367 86° East 283 326 6,000 -120 Level Houston Center
04:04PM 29.8964 -95.1828 91° East 241 277 5,900 -1,200 Descending Houston Center
04:05PM 29.8978 -95.1436 88° East 241 277 4,800 -1,680 Descending Houston Center
04:06PM 29.9161 -95.0792 72° East 224 258 3,300 -1,200 Descending Houston Center
04:06PM 29.9392 -95.0761 North 169 194 3,000 -600 Descending Houston Center
04:07PM 29.9617 -95.0919 329° Northwest 194 223 2,700 -720 Descending Houston Center
04:07PM 29.9803 -95.1122 317° Northwest 181 208 2,300 -720 Descending Houston Center
04:08PM 29.9933 -95.1342 304° West 184 212 2,000 -300 Descending Houston Center
04:08PM 29.9933 -95.1636 270° West 171 197 2,000  Level Houston Center
04:09PM 29.9939 -95.1867 272° West 171 197 2,000  Level Houston Center
04:09PM 29.9919 -95.2169 266° West 169 194 2,000 -420 Level Houston Center
04:10PM 29.9942 -95.2403 276° West 168 193 1,600 -900 Descending Houston Center
04:10PM 29.9928 -95.2697 267° West 158 182 1,100 -1,080 Descending Houston Center
04:11PM 29.9939 -95.3003 272° West 163 188 500 -960 Descending Houston Center